Powrót do katalogu

STARLINK-4651

AktywnyŁącznośćVLEO
NORAD 53729·PAYLOAD·🇺🇸 United States

Wystrzelony Sep 5, 2022 z Cape Canaveral Space Force Station

Loading…

Następne Przeloty (najbliższe 24 godziny)

TLE

ŚwieżeSource: CelesTrak SupGP

Epoka: Sep 14, 2026, 22:09 UTC

1 53729C 22107AF  26257.92340278 -.00022445  00000+0 -64236-3 0  2574
2 53729  53.1586 116.1662 0001348  85.0624 260.4299 15.35399917    15

Śledź STARLINK-4651 w czasie rzeczywistym z AllMySat

Download on the App Store